User: anonymous   Login
Location: Unspecified
(0.0000°N, 0.0000°E)
Time: 08:09:54
(UTC+00:00)
Language:

AEHF 1 (USA 214) - Orbit

View from above orbital plane
View from above orbital plane
View from above satellite
View from above satellite

Ground track
Ground track

The orbit data is extracted from the following two-line orbital elements,

1 36868U 10039A   14317.77737190 0.00000000  00000-0  00000-0 0    04
2 36868   2.0496 264.6039 0004132 155.1126 204.9226  1.00270000    00
Epoch (UTC): 13 November 2014 18:39:24
Eccentricity: 0.0004132
inclination: 2.0496°
perigee height: 35769 km
apogee height: 35804 km
right ascension of ascending node: 264.6039°
argument of perigee: 155.1126°
revolutions per day: 1.00270000
mean anomaly at epoch: 204.9226°
orbit number at epoch: 0

The dashed part of the orbit path shows where the satellite is in the earth's shadow,  

DLR